Tracking 17844 objects as of 25-August-2016
HD Live streaming from Space Station
objects crossing your sky now

OPS 6182 (DMSP 5D-1 F2)

Track OPS 6182 (DMSP 5D-1 F2) now!
10-day predictions
OPS 6182 (DMSP 5D-1 F2) is classified as:


NORAD ID: 10820
Int'l Code: 1978-042A
Perigee: 775.8 km
Apogee: 788.7 km
Inclination: 98.6 °
Period: 100.3 minutes
Semi major axis: 7153 km
RCS: 4.1055 m2 (large)
Launch date: May 1, 1978
Source: United States (US)
Launch site: AIR FORCE WESTERN TEST RANGE (AFWTR)
Your satellite tracking list
Your tracking list is empty





NASA's NSSDC Master Catalog

Two Line Element Set (TLE):
1 10820U 78042A   16236.64421524  .00000071  00000-0  40366-4 0  9999
2 10820  98.5625  61.3288 0009015 197.9985 162.0882 14.35019553998671
Source of the keplerian elements: AFSPC

N2YO: 430